Printer-friendly version

IAU Minor Planet Center

Minor Planet Center

MPEC 2002-C87 : 2002 CV46

The following Minor Planet Electronic Circular may be linked-to from your own Web pages, but must not otherwise be redistributed electronically.


Read MPEC 2002-C86 Read MPEC 2002-C88


M.P.E.C. 2002-C87                                Issued 2002 Feb. 13, 18:43 UT

     The Minor Planet Electronic Circulars contain information on unusual
         minor planets and routine data on comets.  They are published
   on behalf of Commission 20 of the International Astronomical Union by the
          Minor Planet Center, Smithsonian Astrophysical Observatory,
                          Cambridge, MA 02138, U.S.A.

             Prepared using the Tamkin Foundation Computer Network

                              MPC@CFA.HARVARD.EDU
          URL http://cfa-www.harvard.edu/iau/mpc.html  ISSN 1523-6714

                                   2002 CV46

Observations:
     K02C46V* C2002 02 11.37471 10 50 22.60 +04 27 51.2          19.8        704
     K02C46V  C2002 02 11.38907 10 50 23.82 +04 30 37.8          20.1        704
     K02C46V  C2002 02 11.40364 10 50 25.11 +04 33 27.6          20.3        704
     K02C46V  C2002 02 11.41800 10 50 26.33 +04 36 14.8          19.9        704
     K02C46V  C2002 02 11.43239 10 50 27.67 +04 39 02.2          20.2        704
     K02C46V  C2002 02 12.37326 10 52 07.29 +07 45 43.0          19.6        704
     K02C46V  C2002 02 12.38150 10 52 08.05 +07 47 23.6          19.4        704
     K02C46V  C2002 02 12.38967 10 52 08.78 +07 49 02.4          19.5        704
     K02C46V  C2002 02 12.39792 10 52 09.51 +07 50 41.9          19.3        704
     K02C46V  C2002 02 12.42032 10 52 11.52 +07 55 14.2          19.8        704
     K02C46V  C2002 02 12.42644 10 52 12.10 +07 56 28.7          19.2        704
     K02C46V  C2002 02 12.43461 10 52 12.83 +07 58 06.5          20.0        704
     K02C46V  C2002 02 12.44067 10 52 13.40 +07 59 21.8          18.9        704
     K02C46V  C2002 02 13.41241 10 53 58.27 +11 19 16.5          18.9 R      649
     K02C46V  C2002 02 13.41377 10 53 58.36 +11 19 34.0          19.0 R      649
     K02C46V  C2002 02 13.41513 10 53 58.51 +11 19 51.2          19.3 R      649

Observer details:
649 Powell Observatory, Louisburg.  Observers K. Smalley, R. Trentman.
    0.75-m Newtonian + CCD.
704 Lincoln Laboratory ETS, New Mexico.  Observers M. Blythe, F. Shelly,
    M. Bezpalko, R. Huber, L. Manguso, S. Adams, J. Piscitelli.  Measurers
    J. Stuart, R. Sayer, J. B. Evans, H. Viggh.  1.0-m f/2.15 reflector + CCD.

Orbital elements:
2002 CV46
Epoch 2002 Jan. 26.0 TT = JDT 2452300.5                 MPC
M 333.00315              (2000.0)            P               Q
n   0.55784970     Peri.   27.38241     -0.94014590     -0.00909016
a   1.4614745      Node   146.16330     +0.06445513     -0.98634334
e   0.2180002      Incl.   37.71765     +0.33462100     +0.16445116
P   1.77           H   22.0           G   0.15
From 16 observations 2002 Feb. 11-13.

Ephemeris:
2002 CV46                a,e,i = 1.46, 0.22, 38                  q = 1.1429
Date    TT    R. A. (2000) Decl.     Delta      r     Elong.  Phase     V
2002 02 05    10 40.13   -12 52.5    0.228    1.178   144.0    29.4    20.4
2002 02 06    10 41.65   -10 36.2    0.220    1.176   146.5    27.6    20.3
2002 02 07    10 43.20   -08 09.9    0.214    1.174   149.0    25.7    20.2
2002 02 08    10 44.78   -05 33.5    0.207    1.173   151.5    23.6    20.0
2002 02 09    10 46.40   -02 46.9    0.201    1.171   154.1    21.6    19.9
2002 02 10    10 48.05   +00 09.7    0.196    1.170   156.7    19.5    19.8
2002 02 11    10 49.74   +03 16.0    0.192    1.168   159.2    17.5    19.7
2002 02 12    10 51.47   +06 31.0    0.188    1.167   161.3    15.7    19.6
2002 02 13    10 53.25   +09 53.9    0.185    1.165   163.0    14.3    19.5
2002 02 14    10 55.07   +13 23.1    0.182    1.164   164.0    13.5    19.4
2002 02 15    10 56.95   +16 57.1    0.180    1.162   164.1    13.5    19.4
2002 02 16    10 58.89   +20 33.8    0.180    1.161   163.2    14.3    19.4
2002 02 17    11 00.90   +24 11.2    0.180    1.160   161.4    15.8    19.5
2002 02 18    11 02.97   +27 47.1    0.180    1.159   159.0    17.8    19.5
2002 02 19    11 05.11   +31 19.6    0.182    1.157   156.2    20.1    19.6
2002 02 20    11 07.33   +34 46.9    0.184    1.156   153.2    22.7    19.7
2002 02 21    11 09.63   +38 07.2    0.187    1.155   150.1    25.2    19.8
2002 02 22    11 12.02   +41 19.3    0.191    1.154   147.0    27.8    20.0
2002 02 23    11 14.51   +44 22.2    0.195    1.153   143.9    30.3    20.1
2002 02 24    11 17.09   +47 15.4    0.200    1.152   140.9    32.8    20.2
2002 02 25    11 19.78   +49 58.5    0.206    1.151   138.1    35.1    20.3
2002 02 26    11 22.58   +52 31.4    0.212    1.150   135.3    37.2    20.4
2002 02 27    11 25.49   +54 54.2    0.218    1.149   132.7    39.3    20.6
2002 02 28    11 28.52   +57 07.2    0.225    1.149   130.2    41.2    20.7
2002 03 01    11 31.68   +59 10.7    0.232    1.148   127.9    43.0    20.8
2002 03 02    11 34.97   +61 05.3    0.240    1.147   125.6    44.6    20.9
2002 03 03    11 38.39   +62 51.3    0.247    1.147   123.6    46.1    21.0
2002 03 04    11 41.96   +64 29.3    0.255    1.146   121.6    47.5    21.1
2002 03 05    11 45.66   +65 59.9    0.264    1.146   119.7    48.7    21.2
2002 03 06    11 49.51   +67 23.5    0.272    1.145   118.0    49.9    21.3
2002 03 07    11 53.51   +68 40.6    0.280    1.145   116.3    51.0    21.4
2002 03 08    11 57.66   +69 51.7    0.289    1.144   114.8    52.0    21.5
2002 03 09    12 02.0    +70 57.2    0.298    1.144   113.3    52.9    21.6
2002 03 10    12 06.4    +71 57.4    0.307    1.144   111.9    53.7    21.7
2002 03 11    12 11.0    +72 52.9    0.316    1.143   110.6    54.4    21.8
2002 03 12    12 15.8    +73 43.9    0.325    1.143   109.4    55.1    21.9
2002 03 13    12 20.7    +74 30.8    0.334    1.143   108.2    55.7    21.9
2002 03 14    12 25.7    +75 13.8    0.343    1.143   107.1    56.2    22.0
2002 03 15    12 30.9    +75 53.2    0.352    1.143   106.0    56.7    22.1
2002 03 16    12 36.2    +76 29.3    0.361    1.143   105.0    57.2    22.1
2002 03 17    12 41.6    +77 02.3    0.370    1.143   104.1    57.6    22.2

Brian G. Marsden             (C) Copyright 2002 MPC           M.P.E.C. 2002-C87

Read MPEC 2002-C86 Read MPEC 2002-C88


Our Web policy. Index to the CBAT/MPC/ICQ pages.


Valid HTML 4.01!